CDT,Max TemperatureF,Mean TemperatureF,Min TemperatureF,Max Dew PointF,MeanDew PointF,Min DewpointF,Max Humidity, Mean Humidity, Min Humidity, Max Sea Level PressureIn, Mean Sea Level PressureIn, Min Sea Level PressureIn, Max VisibilityMiles, Mean VisibilityMiles, Min VisibilityMiles, Max Wind SpeedMPH, Mean Wind SpeedMPH, Max Gust SpeedMPH,PrecipitationIn, CloudCover, Events, WindDirDegrees
2013-3-1,26,14,1,14,10,-2,92,72,46,30.28,30.24,30.17,10,9,3,14,9,21,0.00,4,Snow,24
2013-3-2,24,10,-5,10,4,-11,92,73,46,30.25,30.18,30.11,10,10,3,15,4,20,0.00,1,Snow,354
2013-3-3,28,6,-16,10,-2,-24,92,66,31,30.11,30.06,30.01,10,10,10,10,2,,0.00,0,,8
2013-3-4,32,12,-7,14,4,-13,86,63,35,30.10,30.07,30.02,10,10,10,10,3,,0.00,3,,103
2013-3-5,28,24,21,21,16,9,93,77,47,30.14,30.07,30.02,10,10,5,15,7,20,0.00,8,,49
2013-3-6,26,14,3,21,16,1,93,84,64,30.27,30.22,30.15,10,8,2,12,7,,0.00,7,Snow,345
2013-3-7,30,19,8,18,12,5,100,78,51,30.35,30.32,30.25,10,9,3,7,1,,0.00,5,Snow,34
2013-3-8,41,22,3,23,16,0,93,68,42,30.36,30.29,30.20,10,10,10,15,4,20,0.00,0,,191
2013-3-9,33,30,28,32,28,21,100,88,64,30.19,29.94,29.75,10,7,0,14,6,22,0.03,6,Snow,167
2013-3-10,33,30,28,32,30,27,100,95,86,29.90,29.83,29.73,10,7,1,16,6,23,0.02,8,Snow,12
2013-3-11,28,24,19,27,23,18,93,88,80,29.79,29.64,29.58,10,3,1,17,11,25,0.00,8,Snow,359
2013-3-12,23,20,17,19,16,12,93,86,74,29.94,29.75,29.64,10,4,1,16,7,21,0.00,8,Snow,315
2013-3-13,30,16,3,14,8,0,93,67,34,30.20,30.11,29.95,10,9,2,16,8,21,0.04,1,Snow,324
2013-3-14,35,12,-11,27,8,-17,86,68,35,30.19,30.07,29.91,10,10,10,14,3,20,0.02,2,,233
2013-3-15,32,22,12,28,17,9,92,72,51,29.93,29.90,29.85,10,8,1,14,8,22,0.00,8,Snow,6
2013-3-16,23,16,10,12,9,5,92,74,58,30.08,29.95,29.90,10,8,2,17,6,23,0.04,7,Snow,332
2013-3-17,28,6,-16,10,-3,-22,85,57,26,30.20,30.11,29.98,10,10,3,10,5,18,0.00,2,Snow,154
2013-3-18,30,24,17,27,20,10,93,84,69,29.97,29.65,29.43,10,7,1,15,8,24,0.00,8,Snow,156
2013-3-19,24,19,14,14,11,7,86,73,54,29.84,29.64,29.43,10,6,2,20,10,30,0.00,7,Snow,288
2013-3-20,19,12,5,12,8,1,86,76,54,29.96,29.88,29.83,10,5,0,15,9,25,0.00,7,Snow,295
2013-3-21,24,12,-2,14,11,-8,92,77,63,29.96,29.94,29.92,10,7,2,14,6,20,0.00,6,Snow,332
2013-3-22,30,12,-5,21,13,-11,100,80,64,30.04,29.98,29.96,10,10,3,10,2,,0.01,7,Snow,2
2013-3-23,30,26,23,21,20,19,86,79,69,30.12,30.08,30.04,10,10,10,9,4,,0.00,8,,22
2013-3-24,30,24,19,23,20,18,93,79,64,30.08,29.99,29.91,10,10,5,13,6,20,0.00,7,,27
2013-3-25,32,26,19,23,21,19,100,82,64,30.11,29.99,29.91,10,10,4,16,8,22,0.00,7,,360
2013-3-26,33,28,24,27,23,19,93,77,56,30.20,30.16,30.10,10,10,10,12,6,,0.00,8,Snow,342
2013-3-27,37,27,15,21,18,14,93,66,41,30.25,30.23,30.20,10,10,10,14,3,18,0.00,5,,333
2013-3-28,42,24,5,21,13,1,93,62,29,30.28,30.25,30.22,10,10,10,9,2,,0.00,0,,349
2013-3-29,46,27,8,21,14,5,93,58,25,30.27,30.21,30.12,10,10,10,7,1,,0.00,0,,252
2013-3-30,37,30,24,36,30,19,100,88,60,30.11,29.88,29.72,10,4,0,12,3,18,0.12,7,Fog-Rain-Snow,215
2013-3-31,35,28,21,36,24,12,100,79,47,29.87,29.69,29.60,10,6,1,22,8,36,0.00,6,Snow,298